Zurück zum Katalog

STARLINK-35615

AktivKommunikationVLEO
NORAD 66257·PAYLOAD·🇺🇸 United States

Gestartet Oct 29, 2025 von Cape Canaveral Space Force Station

Loading…

Nächste Überflüge (nächste 24 Stunden)

TLE

AktuellSource: CelesTrak SupGP

Epoche: Sep 15, 2026, 03:36 UTC

1 66257C 25245Z   26258.15048611  .00028155  00000+0  83189-3 0  2583
2 66257  53.1571 122.7870 0001244  84.2508 110.4614 15.34374597    11

Verfolge STARLINK-35615 in Echtzeit mit AllMySat

Download on the App Store